STARLINK-3889, 52331

Orbit data source: Space-Track

STARLINK-3889, 52331 is a payload satellite owned by SpaceX/Seattle (US) in LEO that was launched on Fri, 29 Apr 2022 UTC via an FALCON 9 launch vehicle from the Air Force Eastern Test Range (AFETR). Payload-class satellites include a variety of spacecraft equipped with specific instruments for various scientific and technological missions. These include communications satellites like Starlink; space stations such as the ISS; scientific satellites like the Hubble; Earth observation satellites from companies like Planet Labs, Umbra, and HawkEye 360; GPS; miniature CubeSats for education and research; and military/defense satellites.

Loading next visibility...
Identifier
52331, 2022-045A
Orbit
LEO
Country
Flag of USUS
Related business
Manufacturer
SpaceX/Seattle
Mission
Operational Commercial Communications
Bus & Motor
STARLINK, Unknown motor
Mass
297 kg wet, ~275 kg dry
Launch date (UTC)
2022-04-29 (4 years ago)
Launch vehicle
FALCON 9
Launch site
Air Force Eastern Test Range (AFETR)
Object type
Payload
Rocket body
Debris
Shape & HBR
Box + 1 Pan, 10.1 m
Radar Cross Section
11.087 m², Large (>1 m²)

Expand to show TLE details & history
Last TLE update: 7 hours ago

TLE from 7 hours ago
0 STARLINK-3889
1 52331U 22045A   26119.85110808 -.00000309  00000-0 -12953-5 0  9996
2 52331  53.2193 339.4505 0001371  91.9031 268.2119 15.08834347223361
Epoch: 2026-04-29T20:25Z
TLE epoch observation values (Epoch: 2026-04-29T20:25:35.738Z)
Latitude
0.00006°
Longitude
175.2455°
Altitude
540.688 km
Speed
7.593 km/s
True Right ascension
22h 37m 48s
True Declination
0° 00' 00"
Sunlit
Object was in daylight at epoch
Visualization orbit readout
Latitude
Unknown
Longitude
Unknown
Altitude
Unknown
Speed
Unknown
Apparent Right ascension
Unknown
Apparent Declination
Unknown
Sunlit
N/A
Visualization observer readout
Local Sidereal Time
10:29:27
Azimuth
Unknown
Elevation
Unknown
Doppler factor
Unknown
Orbital elements
Apogee altitude
540.954 km
Perigee altitude
539.057 km
Semi-major axis
6,918.142 km
Eccentricity
0.00014
Inclination
53.2193°
RAAN
339.4505°
Arg. of periapsis
91.9031°
True anomaly
268.1962°
Mean anomaly
268.2119°
Eccentric anomaly
268.20405°
Mean motion
3.77189 °/min
Orbital period
95.44 mins
BSTAR
-0.0000012953
Loading maneuver chart data...
Computing Atmospheric mass density...
Loading historical data...
Loading historical data...
Loading historical data...
Loading historical data...
Loading historical data...
Loading historical data...
Loading historical data...

Documentation

Showing up to 5 results
|